Year,Month,Day,Hour,Minute,Value (Times are PST for temperature in C)
2009,07,26,09,20,21.30
2009,07,26,09,21,21.40
2009,07,26,09,22,21.50
2009,07,26,09,23,21.70
2009,07,26,09,24,21.70
2009,07,26,09,25,21.60
2009,07,26,09,26,21.70
2009,07,26,09,27,21.80
2009,07,26,09,28,21.80
2009,07,26,09,29,21.90
2009,07,26,09,30,22.00
2009,07,26,09,31,22.10
2009,07,26,09,32,22.00
2009,07,26,09,33,21.90
2009,07,26,09,34,21.90
2009,07,26,09,35,21.80
2009,07,26,09,36,21.80
2009,07,26,09,37,21.80
2009,07,26,09,38,21.70
2009,07,26,09,39,21.70
2009,07,26,09,40,21.70
2009,07,26,09,41,21.80
2009,07,26,09,42,21.70
2009,07,26,09,43,21.80
2009,07,26,09,44,21.80
2009,07,26,09,45,21.80
2009,07,26,09,46,21.80
2009,07,26,09,47,22.00
2009,07,26,09,48,22.10
2009,07,26,09,49,22.20
2009,07,26,09,50,22.20
2009,07,26,09,51,22.20
2009,07,26,09,52,22.30
2009,07,26,09,53,22.30
2009,07,26,09,54,22.30
2009,07,26,09,55,22.40
2009,07,26,09,56,22.40
2009,07,26,09,57,22.30
2009,07,26,09,58,22.30
2009,07,26,09,59,22.20
2009,07,26,10,00,22.20
2009,07,26,10,01,22.20
2009,07,26,10,02,22.30
2009,07,26,10,03,22.30
2009,07,26,10,04,22.40
2009,07,26,10,05,22.50
2009,07,26,10,06,22.60
2009,07,26,10,07,22.70
2009,07,26,10,08,22.80
2009,07,26,10,09,22.80
2009,07,26,10,10,22.70
2009,07,26,10,11,22.70
2009,07,26,10,12,22.60
2009,07,26,10,13,22.70
2009,07,26,10,14,22.70
2009,07,26,10,15,22.70
2009,07,26,10,16,22.70
2009,07,26,10,17,22.70
2009,07,26,10,18,22.80
2009,07,26,10,19,22.90
2009,07,26,10,20,23.00
2009,07,26,10,21,23.00
2009,07,26,10,22,23.00
2009,07,26,10,23,23.10
2009,07,26,10,24,23.10
2009,07,26,10,25,23.10
2009,07,26,10,26,23.10
2009,07,26,10,27,23.10
2009,07,26,10,28,23.20
2009,07,26,10,29,23.20
2009,07,26,10,30,23.30
2009,07,26,10,31,23.50
2009,07,26,10,32,23.60
2009,07,26,10,33,23.60
2009,07,26,10,34,23.50
2009,07,26,10,35,23.50
2009,07,26,10,36,23.40
2009,07,26,10,37,23.40
2009,07,26,10,38,23.40
2009,07,26,10,39,23.30
2009,07,26,10,40,23.30
2009,07,26,10,41,23.30
2009,07,26,10,42,23.30
2009,07,26,10,43,23.30
2009,07,26,10,44,23.30
2009,07,26,10,45,23.30
2009,07,26,10,46,23.30
2009,07,26,10,47,23.30
2009,07,26,10,48,23.40
2009,07,26,10,49,23.50
2009,07,26,10,50,23.60
2009,07,26,10,51,23.70
2009,07,26,10,52,23.60
2009,07,26,10,53,23.60
2009,07,26,10,54,23.60
2009,07,26,10,55,23.60
2009,07,26,10,56,23.60
2009,07,26,10,57,23.50
2009,07,26,10,58,23.40
2009,07,26,10,59,23.40
2009,07,26,11,00,23.40
2009,07,26,11,01,23.50
2009,07,26,11,02,23.50
2009,07,26,11,03,23.40
2009,07,26,11,04,23.40
2009,07,26,11,05,23.50
2009,07,26,11,06,23.60
2009,07,26,11,07,23.60
2009,07,26,11,08,23.60
2009,07,26,11,09,23.60
2009,07,26,11,10,23.70
2009,07,26,11,11,23.80
2009,07,26,11,12,24.00
2009,07,26,11,13,24.00
2009,07,26,11,14,24.20
2009,07,26,11,15,24.30
2009,07,26,11,16,24.30
2009,07,26,11,17,24.30
2009,07,26,11,18,24.30
2009,07,26,11,19,24.30
2009,07,26,11,20,24.40
2009,07,26,11,21,24.40
2009,07,26,11,22,24.40
2009,07,26,11,23,24.30
2009,07,26,11,24,24.30
2009,07,26,11,25,24.20
2009,07,26,11,26,24.20
2009,07,26,11,27,24.30
2009,07,26,11,28,24.40
2009,07,26,11,29,24.50
2009,07,26,11,30,24.40
2009,07,26,11,31,24.40
2009,07,26,11,32,24.40
2009,07,26,11,33,24.40
2009,07,26,11,34,24.40
2009,07,26,11,35,24.40
2009,07,26,11,36,24.30
2009,07,26,11,37,24.20
2009,07,26,11,38,24.10
2009,07,26,11,39,24.10
2009,07,26,11,40,24.10
2009,07,26,11,41,24.10
2009,07,26,11,42,24.10
2009,07,26,11,43,24.20
2009,07,26,11,44,24.30
2009,07,26,11,45,24.40
2009,07,26,11,46,24.40
2009,07,26,11,47,24.50
2009,07,26,11,48,24.60
2009,07,26,11,49,24.60
2009,07,26,11,50,24.50
2009,07,26,11,51,24.40
2009,07,26,11,52,24.30
2009,07,26,11,53,24.40
2009,07,26,11,54,24.40
2009,07,26,11,55,24.50
2009,07,26,11,56,24.60
2009,07,26,11,57,24.50
2009,07,26,11,58,24.40
2009,07,26,11,59,24.40
2009,07,26,12,00,24.40
2009,07,26,12,01,24.40
2009,07,26,12,02,24.50
2009,07,26,12,03,24.40
2009,07,26,12,04,24.40
2009,07,26,12,05,24.60
2009,07,26,12,06,24.60
2009,07,26,12,07,24.60
2009,07,26,12,08,24.70
2009,07,26,12,09,24.60
2009,07,26,12,10,24.70
2009,07,26,12,11,24.60
2009,07,26,12,12,24.60
2009,07,26,12,13,24.70
2009,07,26,12,14,24.70
2009,07,26,12,15,24.60
2009,07,26,12,16,24.40
2009,07,26,12,17,24.30
2009,07,26,12,18,24.20
2009,07,26,12,19,24.30
2009,07,26,12,20,24.40
2009,07,26,12,21,24.40
2009,07,26,12,22,24.40
2009,07,26,12,23,24.30
2009,07,26,12,24,24.40
2009,07,26,12,25,24.30
2009,07,26,12,26,24.30
2009,07,26,12,27,24.40
2009,07,26,12,28,24.40
2009,07,26,12,29,24.40
2009,07,26,12,30,24.50
2009,07,26,12,31,24.60
2009,07,26,12,32,24.70
2009,07,26,12,33,24.70
2009,07,26,12,34,24.70
2009,07,26,12,35,24.70
2009,07,26,12,36,24.70
2009,07,26,12,37,24.80
2009,07,26,12,38,24.90
2009,07,26,12,39,25.10
2009,07,26,12,40,25.30
2009,07,26,12,41,25.50
2009,07,26,12,42,25.60
2009,07,26,12,43,25.50
2009,07,26,12,44,25.30
2009,07,26,12,45,25.20
2009,07,26,12,46,25.10
2009,07,26,12,47,25.10
2009,07,26,12,48,25.10
2009,07,26,12,49,25.20
2009,07,26,12,50,25.20
2009,07,26,12,51,25.20
2009,07,26,12,52,25.20
2009,07,26,12,53,25.30
2009,07,26,12,54,25.30
2009,07,26,12,55,25.30
2009,07,26,12,56,25.40
2009,07,26,12,57,25.40
2009,07,26,12,58,25.40
2009,07,26,12,59,25.50
2009,07,26,13,00,25.40
2009,07,26,13,01,25.40
2009,07,26,13,02,25.40
2009,07,26,13,03,25.30
2009,07,26,13,04,25.30
2009,07,26,13,05,25.20
2009,07,26,13,06,25.10
2009,07,26,13,07,25.10
2009,07,26,13,08,25.20
2009,07,26,13,09,25.10
2009,07,26,13,10,25.10
2009,07,26,13,11,25.30
2009,07,26,13,12,25.30
2009,07,26,13,13,25.30
2009,07,26,13,14,25.30
2009,07,26,13,15,25.30
2009,07,26,13,16,25.20
2009,07,26,13,17,25.20
2009,07,26,13,18,25.30
2009,07,26,13,19,25.40
2009,07,26,13,20,25.50
2009,07,26,13,21,25.70
2009,07,26,13,22,25.80
2009,07,26,13,23,25.90
2009,07,26,13,24,26.00
2009,07,26,13,25,25.90
2009,07,26,13,26,25.90
2009,07,26,13,27,25.70
2009,07,26,13,28,25.70
2009,07,26,13,29,25.80
2009,07,26,13,30,25.90
2009,07,26,13,31,25.80
2009,07,26,13,32,25.80
2009,07,26,13,33,25.80
2009,07,26,13,34,25.70
2009,07,26,13,35,25.80
2009,07,26,13,36,25.90
2009,07,26,13,37,25.90
2009,07,26,13,38,26.00
2009,07,26,13,39,26.10
2009,07,26,13,40,26.30
2009,07,26,13,41,26.30
2009,07,26,13,42,26.20
2009,07,26,13,43,26.10
2009,07,26,13,44,26.10
2009,07,26,13,45,26.00
2009,07,26,13,46,25.90
2009,07,26,13,47,25.90
2009,07,26,13,48,25.90
2009,07,26,13,49,26.00
2009,07,26,13,50,26.20
2009,07,26,13,51,26.30
2009,07,26,13,52,26.10
2009,07,26,13,53,25.90
2009,07,26,13,54,25.90
2009,07,26,13,55,25.80
2009,07,26,13,56,25.90
2009,07,26,13,57,25.90
2009,07,26,13,58,26.00
2009,07,26,13,59,26.10
2009,07,26,14,00,26.20
2009,07,26,14,01,26.20
2009,07,26,14,02,26.10
2009,07,26,14,03,26.00
2009,07,26,14,04,25.90
2009,07,26,14,05,25.90
2009,07,26,14,06,26.00
2009,07,26,14,07,26.20
2009,07,26,14,08,26.10
2009,07,26,14,09,26.00
2009,07,26,14,10,26.00
2009,07,26,14,11,26.00
2009,07,26,14,12,26.00
2009,07,26,14,13,26.00
2009,07,26,14,14,25.90
2009,07,26,14,15,25.90
2009,07,26,14,16,25.80
2009,07,26,14,17,25.60
2009,07,26,14,18,25.40
2009,07,26,14,19,25.30
2009,07,26,14,20,25.30
2009,07,26,14,21,25.30
2009,07,26,14,22,25.20
2009,07,26,14,23,25.30
2009,07,26,14,24,25.40
2009,07,26,14,25,25.40
2009,07,26,14,26,25.40
2009,07,26,14,27,25.50
2009,07,26,14,28,25.60
2009,07,26,14,29,25.80
2009,07,26,14,30,25.90
2009,07,26,14,31,26.10
2009,07,26,14,32,26.10
2009,07,26,14,33,26.00
2009,07,26,14,34,26.00
2009,07,26,14,35,25.90
2009,07,26,14,36,25.90
2009,07,26,14,37,25.90
2009,07,26,14,38,25.90
2009,07,26,14,39,25.80
2009,07,26,14,40,25.80
2009,07,26,14,41,25.80
2009,07,26,14,42,25.90
2009,07,26,14,43,25.90
2009,07,26,14,44,25.80
2009,07,26,14,45,25.80
2009,07,26,14,46,25.70
2009,07,26,14,47,25.70
2009,07,26,14,48,25.60
2009,07,26,14,49,25.50
2009,07,26,14,50,25.50
2009,07,26,14,51,25.60
2009,07,26,14,52,25.60
2009,07,26,14,53,25.70
2009,07,26,14,54,25.80
2009,07,26,14,55,25.80
2009,07,26,14,56,25.90
2009,07,26,14,57,25.90
2009,07,26,14,58,25.90
2009,07,26,14,59,25.80
2009,07,26,15,00,25.80
2009,07,26,15,01,25.70
2009,07,26,15,02,25.60
2009,07,26,15,03,25.50
2009,07,26,15,04,25.40
2009,07,26,15,05,25.40
2009,07,26,15,06,25.40
2009,07,26,15,07,25.50
2009,07,26,15,08,25.60
2009,07,26,15,09,25.70
2009,07,26,15,10,25.80
2009,07,26,15,11,25.90
2009,07,26,15,12,25.90
2009,07,26,15,13,26.00
2009,07,26,15,14,26.10
2009,07,26,15,15,26.20
2009,07,26,15,16,26.30
2009,07,26,15,17,26.30
2009,07,26,15,18,26.20
2009,07,26,15,19,26.10
2009,07,26,15,20,25.90
2009,07,26,15,21,25.90
2009,07,26,15,22,25.90
2009,07,26,15,23,25.90
2009,07,26,15,24,25.90
2009,07,26,15,25,26.10
2009,07,26,15,26,26.00
2009,07,26,15,27,26.10
2009,07,26,15,28,26.20
2009,07,26,15,29,26.20
2009,07,26,15,30,26.10
2009,07,26,15,31,26.10
2009,07,26,15,32,26.20
2009,07,26,15,33,26.30
2009,07,26,15,34,26.60
2009,07,26,15,35,26.70
2009,07,26,15,36,26.60
2009,07,26,15,37,26.60
2009,07,26,15,38,26.60
2009,07,26,15,39,26.50
2009,07,26,15,40,26.40
2009,07,26,15,41,26.30
2009,07,26,15,42,26.30
2009,07,26,15,43,26.30
2009,07,26,15,44,26.30
2009,07,26,15,45,26.30
2009,07,26,15,46,26.30
2009,07,26,15,47,26.20
2009,07,26,15,48,26.20
2009,07,26,15,49,26.10
2009,07,26,15,50,26.00
2009,07,26,15,51,26.00
2009,07,26,15,52,26.10
2009,07,26,15,53,26.10
2009,07,26,15,54,26.10
2009,07,26,15,55,26.30
2009,07,26,15,56,26.50
2009,07,26,15,57,26.50
2009,07,26,15,58,26.60
2009,07,26,15,59,26.70
2009,07,26,16,00,26.60
2009,07,26,16,01,26.60
2009,07,26,16,02,26.50
2009,07,26,16,03,26.60
2009,07,26,16,04,26.70
2009,07,26,16,05,26.70
2009,07,26,16,06,26.60
2009,07,26,16,07,26.40
2009,07,26,16,08,26.30
2009,07,26,16,09,26.30
2009,07,26,16,10,26.30
2009,07,26,16,11,26.40
2009,07,26,16,12,26.50
2009,07,26,16,13,26.40
2009,07,26,16,14,26.30
2009,07,26,16,15,26.30
2009,07,26,16,16,26.30
2009,07,26,16,17,26.20
2009,07,26,16,18,26.20
2009,07,26,16,19,26.20
2009,07,26,16,20,26.20
2009,07,26,16,21,26.10
2009,07,26,16,22,26.10
2009,07,26,16,23,26.00
2009,07,26,16,24,26.00
2009,07,26,16,25,26.20
2009,07,26,16,26,26.40
2009,07,26,16,27,26.50
2009,07,26,16,28,26.50
2009,07,26,16,29,26.50
2009,07,26,16,30,26.40
2009,07,26,16,31,26.30
2009,07,26,16,32,26.20
2009,07,26,16,33,26.10
2009,07,26,16,34,26.10
2009,07,26,16,35,26.20
2009,07,26,16,36,26.10
2009,07,26,16,37,26.10
2009,07,26,16,38,26.10
2009,07,26,16,39,26.10
2009,07,26,16,40,26.10
2009,07,26,16,41,26.10
2009,07,26,16,42,26.20
2009,07,26,16,43,26.30
2009,07,26,16,44,26.40
2009,07,26,16,45,26.30
2009,07,26,16,46,26.20
2009,07,26,16,47,26.10
2009,07,26,16,48,26.00
2009,07,26,16,49,25.90
2009,07,26,16,50,25.80
2009,07,26,16,51,25.70
2009,07,26,16,52,25.80
2009,07,26,16,53,25.80
2009,07,26,16,54,25.70
2009,07,26,16,55,25.70
2009,07,26,16,56,25.60
2009,07,26,16,57,25.60
2009,07,26,16,58,25.60
2009,07,26,16,59,25.70
2009,07,26,17,00,25.70
2009,07,26,17,01,25.70
2009,07,26,17,02,25.80
2009,07,26,17,03,25.70
2009,07,26,17,04,25.70
2009,07,26,17,05,25.70
2009,07,26,17,06,25.70
2009,07,26,17,07,25.70
2009,07,26,17,08,25.70
2009,07,26,17,09,25.70
2009,07,26,17,10,25.60
2009,07,26,17,11,25.50
2009,07,26,17,12,25.50
2009,07,26,17,13,25.50
2009,07,26,17,14,25.40
2009,07,26,17,15,25.40
2009,07,26,17,16,25.40
2009,07,26,17,17,25.40
2009,07,26,17,18,25.30
2009,07,26,17,19,25.30
2009,07,26,17,20,25.30
2009,07,26,17,21,25.20
2009,07,26,17,22,25.20
2009,07,26,17,23,25.20
2009,07,26,17,24,25.20
2009,07,26,17,25,25.10
2009,07,26,17,26,25.10
2009,07,26,17,27,25.10
2009,07,26,17,28,25.20
2009,07,26,17,29,25.30
2009,07,26,17,30,25.20
2009,07,26,17,31,25.20
2009,07,26,17,32,25.20
2009,07,26,17,33,25.30
2009,07,26,17,34,25.30
2009,07,26,17,35,25.30
2009,07,26,17,36,25.30
2009,07,26,17,37,25.20
2009,07,26,17,38,25.10
2009,07,26,17,39,25.10
2009,07,26,17,40,25.30
2009,07,26,17,41,25.30
2009,07,26,17,42,25.30
2009,07,26,17,43,25.30
2009,07,26,17,44,25.20
2009,07,26,17,45,25.20
2009,07,26,17,46,25.10
2009,07,26,17,47,25.10
2009,07,26,17,48,25.00
2009,07,26,17,49,25.00
2009,07,26,17,50,25.00
2009,07,26,17,51,25.00
2009,07,26,17,52,25.00
2009,07,26,17,53,25.10
2009,07,26,17,54,25.10
2009,07,26,17,55,25.20
2009,07,26,17,56,25.20
2009,07,26,17,57,25.30
2009,07,26,17,58,25.30
2009,07,26,17,59,25.40
2009,07,26,18,00,25.30
2009,07,26,18,01,25.30
2009,07,26,18,02,25.30
2009,07,26,18,03,25.30
2009,07,26,18,04,25.40
2009,07,26,18,05,25.30
2009,07,26,18,06,25.30
2009,07,26,18,07,25.20
2009,07,26,18,08,25.10
2009,07,26,18,09,25.00
2009,07,26,18,10,24.90
2009,07,26,18,11,24.80
2009,07,26,18,12,24.80
2009,07,26,18,13,24.70
2009,07,26,18,14,24.60
2009,07,26,18,15,24.60
2009,07,26,18,16,24.60
2009,07,26,18,17,24.60
2009,07,26,18,18,24.70
2009,07,26,18,19,24.70
2009,07,26,18,20,24.80
2009,07,26,18,21,24.70
2009,07,26,18,22,24.70
2009,07,26,18,23,24.60
2009,07,26,18,24,24.70
2009,07,26,18,25,24.70
2009,07,26,18,26,24.70
2009,07,26,18,27,24.70
2009,07,26,18,28,24.70
2009,07,26,18,29,24.70
2009,07,26,18,30,24.80
2009,07,26,18,31,24.90
2009,07,26,18,32,24.90
2009,07,26,18,33,25.00
2009,07,26,18,34,25.10
2009,07,26,18,35,25.10
2009,07,26,18,36,25.10
2009,07,26,18,37,25.10
2009,07,26,18,38,25.00
2009,07,26,18,39,25.00
2009,07,26,18,40,24.80
2009,07,26,18,41,24.80
2009,07,26,18,42,24.80
2009,07,26,18,43,24.90
2009,07,26,18,44,24.90
2009,07,26,18,45,25.00
2009,07,26,18,46,25.00
2009,07,26,18,47,24.90
2009,07,26,18,48,24.90
2009,07,26,18,49,25.00
2009,07,26,18,50,25.10
2009,07,26,18,51,25.20
2009,07,26,18,52,25.20
2009,07,26,18,53,25.20
2009,07,26,18,54,25.20
2009,07,26,18,55,25.20
2009,07,26,18,56,25.10
2009,07,26,18,57,25.10
2009,07,26,18,58,25.00
2009,07,26,18,59,24.90
2009,07,26,19,00,24.90
2009,07,26,19,01,24.90
2009,07,26,19,02,24.80
2009,07,26,19,03,24.70
2009,07,26,19,04,24.70
2009,07,26,19,05,24.70
2009,07,26,19,06,24.60
2009,07,26,19,07,24.70
2009,07,26,19,08,24.70
2009,07,26,19,09,24.70
2009,07,26,19,10,24.60
2009,07,26,19,11,24.60
2009,07,26,19,12,24.60
2009,07,26,19,13,24.60
2009,07,26,19,14,24.60
2009,07,26,19,15,24.60
2009,07,26,19,16,24.60
2009,07,26,19,17,24.60
2009,07,26,19,18,24.60
2009,07,26,19,19,24.60
2009,07,26,19,20,24.60
2009,07,26,19,21,24.50
2009,07,26,19,22,24.40
2009,07,26,19,23,24.40
2009,07,26,19,24,24.40
2009,07,26,19,25,24.40
2009,07,26,19,26,24.40
2009,07,26,19,27,24.40
2009,07,26,19,28,24.40
2009,07,26,19,29,24.40
2009,07,26,19,30,24.40
2009,07,26,19,31,24.40
2009,07,26,19,32,24.40
2009,07,26,19,33,24.40
